Home   Weather   Leipzig   Past weeks

Flag for Germany Past Weather in Leipzig, Saxony, Germany — Yesterday and Last 2 Weeks

Now
48 °F

Partly cloudy.


Feels Like: 43 °F
Forecast: 39 / 47 °F
Wind: 13 mph from Southwest

Location: Leipzig-Schkeuditz

Current Time: Feb 28, 2017 at 4:40:02 am

Latest Report: Feb 28, 2017 at 4:20 am


Visibility: N/A

Pressure: 29.33 "Hg

Humidity: 71%

Dew Point: 39 °F

Location of LeipzigLocation

Past Weather in Leipzig — Graph

°F

Leipzig Temperature Yesterday

Maximum temperature yesterday: 57 °F (at 1:20 pm)
Minimum temperature yesterday: 45 °F (at 2:50 am)
Average temperature yesterday: 50 °F

High & Low Weather Summary for the Past Weeks

 TemperatureHumidityPressure
High57 °F (Feb 27, 1:20 pm)100% (Feb 16, 11:20 pm)30.57 "Hg (Feb 16, 11:20 pm)
Low21 °F (Feb 13, 6:50 am)43% (Feb 15, 3:20 pm)29.21 "Hg (Feb 23, 10:20 pm)
Average41 °F79%30.04 "Hg
* Reported Feb 13 3:20 am — Feb 28 3:20 am, Leipzig, Weather by CustomWeather, © 2017

Note: Actual official high and low records may vary slightly from our data, if they occured in-between our weather recording intervals... More about our weather records

Advertising

Leipzig Weather History for the Previous 24 Hours

Scroll right to see more
 ConditionsComfort  
Time TempWeatherWind HumidityBarometerVisibility
3:20 am
Tue, Feb 28
50 °FOvercast.17 mph67%29.36 "HgN/A
2:50 am50 °FPassing clouds.16 mph67%29.36 "HgN/A
2:20 am50 °FPartly cloudy.17 mph67%29.36 "HgN/A
1:50 am50 °FOvercast.13 mph67%29.39 "HgN/A
1:20 am50 °FPartly cloudy.13 mph67%29.39 "HgN/A
12:50 am50 °FPassing clouds.20 mph58%29.39 "HgN/A
12:20 am52 °FClear.18 mph54%29.36 "Hg10 mi
11:50 pm
Mon, Feb 27
50 °FClear.20 mph58%29.36 "Hg10 mi
11:20 pm50 °FClear.20 mph58%29.36 "Hg10 mi
10:50 pm50 °FClear.16 mph58%29.36 "Hg10 mi
10:20 pm50 °FClear.17 mph58%29.39 "Hg10 mi
9:50 pm50 °FClear.17 mph58%29.39 "Hg10 mi
9:20 pm50 °FClear.18 mph58%29.42 "Hg10 mi
8:50 pm50 °FClear.15 mph62%29.42 "Hg10 mi
8:20 pm45 °FClear.9 mph76%29.42 "Hg10 mi
7:50 pm46 °FClear.10 mph66%29.45 "Hg10 mi
7:20 pm45 °FClear.10 mph71%29.47 "Hg10 mi
6:50 pm46 °FClear.8 mph66%29.47 "Hg10 mi
6:20 pm46 °FClear.6 mph71%29.47 "Hg10 mi
5:50 pm52 °FClear.8 mph58%29.50 "Hg10 mi
5:20 pm52 °FSunny.7 mph58%29.50 "Hg10 mi
4:50 pm54 °FSunny.12 mph54%29.53 "Hg10 mi
4:20 pm55 °FPassing clouds.14 mph51%29.53 "HgN/A
3:50 pm55 °FPassing clouds.17 mph51%29.56 "HgN/A
3:20 pm55 °FPassing clouds.20 mph51%29.56 "HgN/A
2:50 pm57 °FPassing clouds.18 mph48%29.59 "HgN/A
2:20 pm57 °FScattered clouds.18 mph51%29.59 "HgN/A
1:50 pm57 °FScattered clouds.18 mph51%29.62 "HgN/A
1:20 pm57 °FScattered clouds.18 mph51%29.65 "HgN/A
12:50 pm55 °FScattered clouds.14 mph55%29.65 "HgN/A
12:20 pm55 °FScattered clouds.18 mph55%29.68 "HgN/A
11:50 am55 °FPartly sunny.18 mph55%29.71 "HgN/A
11:20 am52 °FPartly sunny.13 mph62%29.74 "HgN/A
10:50 am52 °FPartly sunny.13 mph58%29.74 "HgN/A
10:20 am52 °FPartly sunny.14 mph62%29.74 "HgN/A
9:50 am50 °FPartly sunny.10 mph67%29.77 "HgN/A
9:20 am48 °FPartly sunny.9 mph66%29.77 "HgN/A
8:50 am48 °FPartly sunny.9 mph66%29.77 "HgN/A
8:20 am46 °FPartly sunny.7 mph71%29.80 "HgN/A
7:50 am46 °FPartly sunny.9 mph71%29.80 "HgN/A
7:20 am46 °FPartly sunny.9 mph66%29.80 "HgN/A
6:50 am45 °FOvercast.9 mph71%29.80 "HgN/A
6:20 am46 °FPassing clouds.9 mph66%29.80 "HgN/A
5:50 am46 °FPassing clouds.13 mph66%29.80 "HgN/A
5:20 am46 °FPassing clouds.10 mph66%29.83 "HgN/A
4:50 am46 °FCool.10 mph66%29.83 "HgN/A
4:20 am46 °FPassing clouds.9 mph62%29.83 "HgN/A
Weather by CustomWeather, © 2017

See weather overviewHow to use our weather pages